This demonstration page uses our WeatherBlox Daily Observations layout. Learn more.

Left ArrowRight Arrow

30.00354, -91.81873

Hourly Observations for February 9, 2023

Temp ( °F °C ) Dew Point ( °F °C ) Humidity (%) Winds ( mph kmh ) Pressure ( in mb ) Visibility ( mi km ) Precip ( " mm )
12:07 am 00:07 Mostly Cloudy 62 16.7 59 15 90 90 WNW 17 28 30.04 1017 10 16 0.00 0.00
12:53 am 00:53 Cloudy 61 16.1 54 12.2 78 78 NW 16 26 30.05 1018 10 16 0.00 0.00
1:53 am 01:53 Cloudy 58 14.4 50 10 75 75 NW 9 15 30.06 1018 10 16 0.00 0.00
2:53 am 02:53 Mostly Cloudy 55 12.8 49 9.4 80 80 NNW 6 9 30.07 1018 10 16 0.00 0.00
3:53 am 03:53 Mostly Cloudy 55 12.8 46 7.8 72 72 N 5 7 30.08 1019 10 16 0.00 0.00
4:53 am 04:53 Clear 53 11.7 45 7.2 74 74 N 3 6 30.09 1019 10 16 0.00 0.00
5:53 am 05:53 Clear 53 11.7 45 7.2 74 74 N 5 7 30.09 1019 10 16 0.00 0.00
6:53 am 06:53 Sunny 50 10 46 7.8 86 86 NNW 6 9 30.11 1020 10 16 0.00 0.00
7:53 am 07:53 Sunny 53 11.7 46 7.8 77 77 NNW 9 15 30.11 1020 10 16 0.00 0.00
8:53 am 08:53 Sunny 57 13.9 43 6.1 59 59 N 10 17 30.13 1020 10 16 0.00 0.00
9:53 am 09:53 Sunny 60 15.6 41 5 49 49 N 13 20 30.14 1021 10 16 0.00 0.00
10:53 am 10:53 Sunny 63 17.2 40 4.4 43 43 NNE 8 13 30.15 1021 10 16 0.00 0.00
11:53 am 11:53 Sunny 66 18.9 43 6.1 43 43 NE 10 17 30.13 1020 10 16 0.00 0.00
12:53 pm 12:53 Sunny 68 20 41 5 37 37 NNE 10 17 30.11 1020 10 16 0.00 0.00
1:53 pm 13:53 Sunny 68 20 41 5 37 37 NE 10 17 30.08 1019 10 16 0.00 0.00
2:53 pm 14:53 Sunny 68 20 40 4.4 36 36 VRB 7 11 30.07 1018 10 16 0.00 0.00
3:53 pm 15:53 Sunny 69 20.6 38 3.3 32 32 NNE 7 11 30.07 1018 10 16 0.00 0.00
4:53 pm 16:53 Sunny 67 19.4 39 3.9 36 36 N 8 13 30.07 1018 10 16 0.00 0.00
5:53 pm 17:53 Clear 63 17.2 37 2.8 38 38 N 6 9 30.07 1018 10 16 0.00 0.00
6:53 pm 18:53 Clear 57 13.9 47 8.3 69 69 NNW 3 6 30.09 1019 10 16 0.00 0.00
7:53 pm 19:53 Clear 55 12.8 42 5.6 62 62 NNW 5 7 30.10 1019 10 16 0.00 0.00
8:53 pm 20:53 Clear 56 13.3 40 4.4 55 55 N 6 9 30.11 1020 10 16 0.00 0.00
9:53 pm 21:53 Clear 56 13.3 40 4.4 55 55 NNE 6 9 30.11 1020 10 16 0.00 0.00
10:53 pm 22:53 Clear 53 11.7 40 4.4 61 61 N 8 13 30.11 1020 10 16 0.00 0.00
11:53 pm 23:53 Clear 53 11.7 40 4.4 61 61 N 7 11 30.11 1020 10 16 0.00 0.00

Powered by AerisWeather